owner,sensor,date,latitude,longitude,vertical_datum,mass_concentration_of_oxygen_in_sea_water,qcFlag 
SCCF RECON,ioos:station:SCCF:18:1,2015-03-01T00:00:00Z,26.6955,-81.8138,1.45,7.98,1111122 
SCCF RECON,ioos:station:SCCF:18:1,2015-03-01T01:00:00Z,26.6955,-81.8138,1.5,8.07,1111122 
SCCF RECON,ioos:station:SCCF:18:1,2015-03-01T02:00:00Z,26.6955,-81.8138,1.55,7.99,1111122 
SCCF RECON,ioos:station:SCCF:18:1,2015-03-01T03:00:00Z,26.6955,-81.8138,1.6,7.95,1111122 
SCCF RECON,ioos:station:SCCF:18:1,2015-03-01T04:00:00Z,26.6955,-81.8138,1.62,7.92,1111122 
SCCF RECON,ioos:station:SCCF:18:1,2015-03-01T05:00:00Z,26.6955,-81.8138,1.621,7.89,1111122 
SCCF RECON,ioos:station:SCCF:18:1,2015-03-01T06:00:00Z,26.6955,-81.8138,1.62,7.84,1111122 
SCCF RECON,ioos:station:SCCF:18:1,2015-03-01T07:00:00Z,26.6955,-81.8138,1.579,7.61,1111122 
SCCF RECON,ioos:station:SCCF:18:1,2015-03-01T08:00:00Z,26.6955,-81.8138,1.51,7.62,1111122 
SCCF RECON,ioos:station:SCCF:18:1,2015-03-01T09:00:00Z,26.6955,-81.8138,1.46,7.77,1111122 
SCCF RECON,ioos:station:SCCF:18:1,2015-03-01T10:00:00Z,26.6955,-81.8138,1.419,7.62,1111122 
SCCF RECON,ioos:station:SCCF:18:1,2015-03-01T11:00:00Z,26.6955,-81.8138,1.38,7.62,1111122 
SCCF RECON,ioos:station:SCCF:18:1,2015-03-01T12:00:00Z,26.6955,-81.8138,1.332,7.5,1111122 
SCCF RECON,ioos:station:SCCF:18:1,2015-03-01T13:00:00Z,26.6955,-81.8138,1.3,7.68,1111122 
SCCF RECON,ioos:station:SCCF:18:1,2015-03-01T14:00:00Z,26.6955,-81.8138,1.3,7.71,1111122 
SCCF RECON,ioos:station:SCCF:18:1,2015-03-01T15:00:00Z,26.6955,-81.8138,1.31,7.75,1111122 
SCCF RECON,ioos:station:SCCF:18:1,2015-03-01T16:00:00Z,26.6955,-81.8138,1.37,7.75,1111122 
SCCF RECON,ioos:station:SCCF:18:1,2015-03-01T17:00:00Z,26.6955,-81.8138,1.436,7.82,1111122 
SCCF RECON,ioos:station:SCCF:18:1,2015-03-01T18:00:00Z,26.6955,-81.8138,1.488,7.93,1111122 
SCCF RECON,ioos:station:SCCF:18:1,2015-03-01T19:00:00Z,26.6955,-81.8138,1.53,8.15,1111122 
SCCF RECON,ioos:station:SCCF:18:1,2015-03-01T20:00:00Z,26.6955,-81.8138,1.55,8.33,1111122 
SCCF RECON,ioos:station:SCCF:18:1,2015-03-01T21:00:00Z,26.6955,-81.8138,1.56,8.15,1111122 
SCCF RECON,ioos:station:SCCF:18:1,2015-03-01T22:00:00Z,26.6955,-81.8138,1.53,8.2,1111122 
SCCF RECON,ioos:station:SCCF:18:1,2015-03-01T23:00:00Z,26.6955,-81.8138,1.49,8.23,1111122 
SCCF RECON,ioos:station:SCCF:18:1,2015-03-02T00:00:00Z,26.6955,-81.8138,1.459,7.93,1111122 
SCCF RECON,ioos:station:SCCF:18:1,2015-03-02T01:00:00Z,26.6955,-81.8138,1.46,8.01,1111122 
SCCF RECON,ioos:station:SCCF:18:1,2015-03-02T02:00:00Z,26.6955,-81.8138,1.52,7.86,1111122 
SCCF RECON,ioos:station:SCCF:18:1,2015-03-02T03:00:00Z,26.6955,-81.8138,1.61,7.76,1111122 
SCCF RECON,ioos:station:SCCF:18:1,2015-03-02T04:00:00Z,26.6955,-81.8138,1.67,7.79,1111122 
SCCF RECON,ioos:station:SCCF:18:1,2015-03-02T05:00:00Z,26.6955,-81.8138,1.69,7.65,1111122 
SCCF RECON,ioos:station:SCCF:18:1,2015-03-02T06:00:00Z,26.6955,-81.8138,1.71,7.62,1111122 
SCCF RECON,ioos:station:SCCF:18:1,2015-03-02T07:00:00Z,26.6955,-81.8138,1.71,7.74,1111122 
SCCF RECON,ioos:station:SCCF:18:1,2015-03-02T08:00:00Z,26.6955,-81.8138,1.657,7.47,1111122 
SCCF RECON,ioos:station:SCCF:18:1,2015-03-02T09:00:00Z,26.6955,-81.8138,1.57,7.54,1111122 
SCCF RECON,ioos:station:SCCF:18:1,2015-03-02T10:00:00Z,26.6955,-81.8138,1.52,7.54,1111122 
SCCF RECON,ioos:station:SCCF:18:1,2015-03-02T11:00:00Z,26.6955,-81.8138,1.48,7.63,1111122 
SCCF RECON,ioos:station:SCCF:18:1,2015-03-02T12:00:00Z,26.6955,-81.8138,1.44,7.58,1111122 
SCCF RECON,ioos:station:SCCF:18:1,2015-03-02T13:00:00Z,26.6955,-81.8138,1.39,7.35,1111122 
SCCF RECON,ioos:station:SCCF:18:1,2015-03-02T14:00:00Z,26.6955,-81.8138,1.35,7.47,1111122 
SCCF RECON,ioos:station:SCCF:18:1,2015-03-02T15:00:00Z,26.6955,-81.8138,1.33,7.58,1111122 
SCCF RECON,ioos:station:SCCF:18:1,2015-03-02T16:00:00Z,26.6955,-81.8138,1.351,7.5,1111122 
SCCF RECON,ioos:station:SCCF:18:1,2015-03-02T17:00:00Z,26.6955,-81.8138,1.41,7.76,1111122 
SCCF RECON,ioos:station:SCCF:18:1,2015-03-02T18:00:00Z,26.6955,-81.8138,1.47,7.75,1111122 
SCCF RECON,ioos:station:SCCF:18:1,2015-03-02T19:00:00Z,26.6955,-81.8138,1.5,8.05,1111122 
SCCF RECON,ioos:station:SCCF:18:1,2015-03-02T20:00:00Z,26.6955,-81.8138,1.52,8.24,1111122 
SCCF RECON,ioos:station:SCCF:18:1,2015-03-02T21:00:00Z,26.6955,-81.8138,1.52,8.23,1111122 
SCCF RECON,ioos:station:SCCF:18:1,2015-03-02T22:00:00Z,26.6955,-81.8138,1.493,8.29,1111122 
SCCF RECON,ioos:station:SCCF:18:1,2015-03-02T23:00:00Z,26.6955,-81.8138,1.449,8.23,1111122 
SCCF RECON,ioos:station:SCCF:18:1,2015-03-03T00:00:00Z,26.6955,-81.8138,1.41,7.89,1111122 
SCCF RECON,ioos:station:SCCF:18:1,2015-03-03T01:00:00Z,26.6955,-81.8138,1.4,8.29,1111122 
SCCF RECON,ioos:station:SCCF:18:1,2015-03-03T02:00:00Z,26.6955,-81.8138,1.41,8.09,1111122 
SCCF RECON,ioos:station:SCCF:18:1,2015-03-03T03:00:00Z,26.6955,-81.8138,1.45,7.9,1111122 
SCCF RECON,ioos:station:SCCF:18:1,2015-03-03T04:00:00Z,26.6955,-81.8138,1.52,7.72,1111122 
SCCF RECON,ioos:station:SCCF:18:1,2015-03-03T05:00:00Z,26.6955,-81.8138,1.59,7.51,1111122 
SCCF RECON,ioos:station:SCCF:18:1,2015-03-03T06:00:00Z,26.6955,-81.8138,1.63,7.6,1111122 
SCCF RECON,ioos:station:SCCF:18:1,2015-03-03T07:00:00Z,26.6955,-81.8138,1.66,7.59,1111122 
SCCF RECON,ioos:station:SCCF:18:1,2015-03-03T08:00:00Z,26.6955,-81.8138,1.66,7.66,1111122 
SCCF RECON,ioos:station:SCCF:18:1,2015-03-03T09:00:00Z,26.6955,-81.8138,1.6,7.19,1111122 
SCCF RECON,ioos:station:SCCF:18:1,2015-03-03T10:00:00Z,26.6955,-81.8138,1.52,7.6,1111122 
SCCF RECON,ioos:station:SCCF:18:1,2015-03-03T11:00:00Z,26.6955,-81.8138,1.46,7.64,1111122 
SCCF RECON,ioos:station:SCCF:18:1,2015-03-03T12:00:00Z,26.6955,-81.8138,1.422,7.54,1111122 
SCCF RECON,ioos:station:SCCF:18:1,2015-03-03T13:00:00Z,26.6955,-81.8138,1.389,7.4,1111122 
SCCF RECON,ioos:station:SCCF:18:1,2015-03-03T14:00:00Z,26.6955,-81.8138,1.345,7.36,1111122 
SCCF RECON,ioos:station:SCCF:18:1,2015-03-03T15:00:00Z,26.6955,-81.8138,1.31,7.44,1111122 
SCCF RECON,ioos:station:SCCF:18:1,2015-03-03T16:00:00Z,26.6955,-81.8138,1.304,7.63,1111122 
SCCF RECON,ioos:station:SCCF:18:1,2015-03-03T17:00:00Z,26.6955,-81.8138,1.36,7.52,1111122 
SCCF RECON,ioos:station:SCCF:18:1,2015-03-03T18:00:00Z,26.6955,-81.8138,1.43,7.84,1111122 
SCCF RECON,ioos:station:SCCF:18:1,2015-03-03T19:00:00Z,26.6955,-81.8138,1.47,8.01,1111122 
SCCF RECON,ioos:station:SCCF:18:1,2015-03-03T20:00:00Z,26.6955,-81.8138,1.508,8.16,1111122 
SCCF RECON,ioos:station:SCCF:18:1,2015-03-03T21:00:00Z,26.6955,-81.8138,1.519,8.07,1111122 
SCCF RECON,ioos:station:SCCF:18:1,2015-03-03T22:00:00Z,26.6955,-81.8138,1.507,8.16,1111122 
SCCF RECON,ioos:station:SCCF:18:1,2015-03-03T23:00:00Z,26.6955,-81.8138,1.467,8.25,1111122 
SCCF RECON,ioos:station:SCCF:18:1,2015-03-04T00:00:00Z,26.6955,-81.8138,1.43,7.97,1111122 
SCCF RECON,ioos:station:SCCF:18:1,2015-03-04T01:00:00Z,26.6955,-81.8138,1.4,7.86,1111122 
SCCF RECON,ioos:station:SCCF:18:1,2015-03-04T02:00:00Z,26.6955,-81.8138,1.38,7.8,1111122 
SCCF RECON,ioos:station:SCCF:18:1,2015-03-04T03:00:00Z,26.6955,-81.8138,1.39,7.76,1111122 
SCCF RECON,ioos:station:SCCF:18:1,2015-03-04T04:00:00Z,26.6955,-81.8138,1.47,7.52,1111122 
SCCF RECON,ioos:station:SCCF:18:1,2015-03-04T05:00:00Z,26.6955,-81.8138,1.55,7.35,1111122 
SCCF RECON,ioos:station:SCCF:18:1,2015-03-04T06:00:00Z,26.6955,-81.8138,1.6,7.46,1111122 
SCCF RECON,ioos:station:SCCF:18:1,2015-03-04T07:00:00Z,26.6955,-81.8138,1.63,7.33,1111122 
SCCF RECON,ioos:station:SCCF:18:1,2015-03-04T08:00:00Z,26.6955,-81.8138,1.656,7.34,1111122 
SCCF RECON,ioos:station:SCCF:18:1,2015-03-04T09:00:00Z,26.6955,-81.8138,1.63,7.36,1111122 
SCCF RECON,ioos:station:SCCF:18:1,2015-03-04T10:00:00Z,26.6955,-81.8138,1.56,7.33,1111122 
SCCF RECON,ioos:station:SCCF:18:1,2015-03-04T11:00:00Z,26.6955,-81.8138,1.5,7.18,1111122 
SCCF RECON,ioos:station:SCCF:18:1,2015-03-04T12:00:00Z,26.6955,-81.8138,1.45,7.19,1111122 
SCCF RECON,ioos:station:SCCF:18:1,2015-03-04T13:00:00Z,26.6955,-81.8138,1.42,7.12,1111122 
SCCF RECON,ioos:station:SCCF:18:1,2015-03-04T14:00:00Z,26.6955,-81.8138,1.379,7.27,1111122 
SCCF RECON,ioos:station:SCCF:18:1,2015-03-04T15:00:00Z,26.6955,-81.8138,1.339,7.36,1111122 
SCCF RECON,ioos:station:SCCF:18:1,2015-03-04T16:00:00Z,26.6955,-81.8138,1.33,7.4,1111122 
SCCF RECON,ioos:station:SCCF:18:1,2015-03-04T17:00:00Z,26.6955,-81.8138,1.393,7.61,1111122 
SCCF RECON,ioos:station:SCCF:18:1,2015-03-04T18:00:00Z,26.6955,-81.8138,1.47,7.93,1111122 
SCCF RECON,ioos:station:SCCF:18:1,2015-03-04T19:00:00Z,26.6955,-81.8138,1.53,7.66,1111122 
SCCF RECON,ioos:station:SCCF:18:1,2015-03-04T20:00:00Z,26.6955,-81.8138,1.58,7.74,1111122 
SCCF RECON,ioos:station:SCCF:18:1,2015-03-04T21:00:00Z,26.6955,-81.8138,1.62,7.59,1111122 
SCCF RECON,ioos:station:SCCF:18:1,2015-03-04T22:00:00Z,26.6955,-81.8138,1.63,7.51,1111122 
SCCF RECON,ioos:station:SCCF:18:1,2015-03-04T23:00:00Z,26.6955,-81.8138,1.6,7.75,1111122 
SCCF RECON,ioos:station:SCCF:18:1,2015-03-05T00:00:00Z,26.6955,-81.8138,1.521,8.05,1111122 
SCCF RECON,ioos:station:SCCF:18:1,2015-03-05T01:00:00Z,26.6955,-81.8138,1.46,8.01,1111122 
SCCF RECON,ioos:station:SCCF:18:1,2015-03-05T02:00:00Z,26.6955,-81.8138,1.42,7.72,1111122 
SCCF RECON,ioos:station:SCCF:18:1,2015-03-05T03:00:00Z,26.6955,-81.8138,1.39,7.59,1111122 
SCCF RECON,ioos:station:SCCF:18:1,2015-03-05T04:00:00Z,26.6955,-81.8138,1.42,7.46,1111122 
SCCF RECON,ioos:station:SCCF:18:1,2015-03-05T05:00:00Z,26.6955,-81.8138,1.5,7.37,1111122 
SCCF RECON,ioos:station:SCCF:18:1,2015-03-05T06:00:00Z,26.6955,-81.8138,1.58,7.3,1111122 
SCCF RECON,ioos:station:SCCF:18:1,2015-03-05T07:00:00Z,26.6955,-81.8138,1.62,7.2,1111122 
SCCF RECON,ioos:station:SCCF:18:1,2015-03-05T08:00:00Z,26.6955,-81.8138,1.65,7.15,1111122 
SCCF RECON,ioos:station:SCCF:18:1,2015-03-05T09:00:00Z,26.6955,-81.8138,1.67,7.23,1111122 
SCCF RECON,ioos:station:SCCF:18:1,2015-03-05T10:00:00Z,26.6955,-81.8138,1.636,7.16,1111122 
SCCF RECON,ioos:station:SCCF:18:1,2015-03-05T11:00:00Z,26.6955,-81.8138,1.56,7.11,1111122 
SCCF RECON,ioos:station:SCCF:18:1,2015-03-05T12:00:00Z,26.6955,-81.8138,1.5,7.15,1111122 
SCCF RECON,ioos:station:SCCF:18:1,2015-03-05T13:00:00Z,26.6955,-81.8138,1.46,7.03,1111122 
SCCF RECON,ioos:station:SCCF:18:1,2015-03-05T14:00:00Z,26.6955,-81.8138,1.43,7.02,1111122 
SCCF RECON,ioos:station:SCCF:18:1,2015-03-05T15:00:00Z,26.6955,-81.8138,1.4,7.13,1111122 
SCCF RECON,ioos:station:SCCF:18:1,2015-03-05T16:00:00Z,26.6955,-81.8138,1.39,7.1,1111122 
SCCF RECON,ioos:station:SCCF:18:1,2015-03-05T17:00:00Z,26.6955,-81.8138,1.46,7.43,1111122 
SCCF RECON,ioos:station:SCCF:18:1,2015-03-05T18:00:00Z,26.6955,-81.8138,1.54,7.42,1111122 
SCCF RECON,ioos:station:SCCF:18:1,2015-03-05T19:00:00Z,26.6955,-81.8138,1.62,7.24,1111122 
SCCF RECON,ioos:station:SCCF:18:1,2015-03-05T20:00:00Z,26.6955,-81.8138,1.648,7.32,1111122 
SCCF RECON,ioos:station:SCCF:18:1,2015-03-05T21:00:00Z,26.6955,-81.8138,1.68,7.28,1111122 
SCCF RECON,ioos:station:SCCF:18:1,2015-03-05T22:00:00Z,26.6955,-81.8138,1.68,7.15,1111122 
SCCF RECON,ioos:station:SCCF:18:1,2015-03-05T23:00:00Z,26.6955,-81.8138,1.62,7.42,1111122 
SCCF RECON,ioos:station:SCCF:18:1,2015-03-06T00:00:00Z,26.6955,-81.8138,1.54,7.71,1111122 
SCCF RECON,ioos:station:SCCF:18:1,2015-03-06T01:00:00Z,26.6955,-81.8138,1.48,7.54,1111122 
SCCF RECON,ioos:station:SCCF:18:1,2015-03-06T02:00:00Z,26.6955,-81.8138,1.44,7.39,1111122 
SCCF RECON,ioos:station:SCCF:18:1,2015-03-06T03:00:00Z,26.6955,-81.8138,1.39,7.41,1111122 
SCCF RECON,ioos:station:SCCF:18:1,2015-03-06T04:00:00Z,26.6955,-81.8138,1.351,7.35,1111122 
SCCF RECON,ioos:station:SCCF:18:1,2015-03-06T05:00:00Z,26.6955,-81.8138,1.37,7.29,1111122 
SCCF RECON,ioos:station:SCCF:18:1,2015-03-06T06:00:00Z,26.6955,-81.8138,1.45,6.88,1111122 
SCCF RECON,ioos:station:SCCF:18:1,2015-03-06T07:00:00Z,26.6955,-81.8138,1.52,6.87,1111122 
SCCF RECON,ioos:station:SCCF:18:1,2015-03-06T08:00:00Z,26.6955,-81.8138,1.55,6.78,1111122 
SCCF RECON,ioos:station:SCCF:18:1,2015-03-06T09:00:00Z,26.6955,-81.8138,1.58,6.79,1111122 
SCCF RECON,ioos:station:SCCF:18:1,2015-03-06T10:00:00Z,26.6955,-81.8138,1.58,6.76,1111122 
SCCF RECON,ioos:station:SCCF:18:1,2015-03-06T11:00:00Z,26.6955,-81.8138,1.52,6.91,1111122 
SCCF RECON,ioos:station:SCCF:18:1,2015-03-06T12:00:00Z,26.6955,-81.8138,1.45,6.73,1111122 
SCCF RECON,ioos:station:SCCF:18:1,2015-03-06T13:00:00Z,26.6955,-81.8138,1.42,6.84,1111122 
SCCF RECON,ioos:station:SCCF:18:1,2015-03-06T14:00:00Z,26.6955,-81.8138,1.39,6.65,1111122 
SCCF RECON,ioos:station:SCCF:18:1,2015-03-06T15:00:00Z,26.6955,-81.8138,1.342,6.78,1111122 
SCCF RECON,ioos:station:SCCF:18:1,2015-03-06T16:00:00Z,26.6955,-81.8138,1.31,6.77,1111122 
SCCF RECON,ioos:station:SCCF:18:1,2015-03-06T17:00:00Z,26.6955,-81.8138,1.32,7.07,1111122 
SCCF RECON,ioos:station:SCCF:18:1,2015-03-06T18:00:00Z,26.6955,-81.8138,1.41,7.05,1111122 
SCCF RECON,ioos:station:SCCF:18:1,2015-03-06T19:00:00Z,26.6955,-81.8138,1.5,7.29,1111122 
SCCF RECON,ioos:station:SCCF:18:1,2015-03-06T20:00:00Z,26.6955,-81.8138,1.56,7.14,1111122 
SCCF RECON,ioos:station:SCCF:18:1,2015-03-06T21:00:00Z,26.6955,-81.8138,1.61,7.11,1111122 
SCCF RECON,ioos:station:SCCF:18:1,2015-03-06T22:00:00Z,26.6955,-81.8138,1.64,7.13,1111122 
SCCF RECON,ioos:station:SCCF:18:1,2015-03-06T23:00:00Z,26.6955,-81.8138,1.61,7.54,1111122 
SCCF RECON,ioos:station:SCCF:18:1,2015-03-07T00:00:00Z,26.6955,-81.8138,1.54,7.52,1111122 
SCCF RECON,ioos:station:SCCF:18:1,2015-03-07T01:00:00Z,26.6955,-81.8138,1.49,7.48,1111122 
SCCF RECON,ioos:station:SCCF:18:1,2015-03-07T02:00:00Z,26.6955,-81.8138,1.452,7.44,1111122 
SCCF RECON,ioos:station:SCCF:18:1,2015-03-07T03:00:00Z,26.6955,-81.8138,1.4,7.44,1111122 
SCCF RECON,ioos:station:SCCF:18:1,2015-03-07T04:00:00Z,26.6955,-81.8138,1.34,7.22,1111122 
SCCF RECON,ioos:station:SCCF:18:1,2015-03-07T05:00:00Z,26.6955,-81.8138,1.291,7.16,1111122 
SCCF RECON,ioos:station:SCCF:18:1,2015-03-07T06:00:00Z,26.6955,-81.8138,1.3,7.23,1111122 
SCCF RECON,ioos:station:SCCF:18:1,2015-03-07T07:00:00Z,26.6955,-81.8138,1.351,7.23,1111122 
SCCF RECON,ioos:station:SCCF:18:1,2015-03-07T08:00:00Z,26.6955,-81.8138,1.42,7.12,1111122 
SCCF RECON,ioos:station:SCCF:18:1,2015-03-07T09:00:00Z,26.6955,-81.8138,1.449,7.2,1111122 
SCCF RECON,ioos:station:SCCF:18:1,2015-03-07T10:00:00Z,26.6955,-81.8138,1.45,7.0,1111122 
SCCF RECON,ioos:station:SCCF:18:1,2015-03-07T11:00:00Z,26.6955,-81.8138,1.42,7.08,1111122 
SCCF RECON,ioos:station:SCCF:18:1,2015-03-07T12:00:00Z,26.6955,-81.8138,1.37,7.06,1111122 
SCCF RECON,ioos:station:SCCF:18:1,2015-03-07T13:00:00Z,26.6955,-81.8138,1.32,7.14,1111122 
SCCF RECON,ioos:station:SCCF:18:1,2015-03-07T14:00:00Z,26.6955,-81.8138,1.28,7.12,1111122 
SCCF RECON,ioos:station:SCCF:18:1,2015-03-07T15:00:00Z,26.6955,-81.8138,1.243,7.22,1111122 
SCCF RECON,ioos:station:SCCF:18:1,2015-03-07T16:00:00Z,26.6955,-81.8138,1.21,7.38,1111122 
SCCF RECON,ioos:station:SCCF:18:1,2015-03-07T17:00:00Z,26.6955,-81.8138,1.178,7.59,1111122 
SCCF RECON,ioos:station:SCCF:18:1,2015-03-07T18:00:00Z,26.6955,-81.8138,1.17,7.71,1111122 
SCCF RECON,ioos:station:SCCF:18:1,2015-03-07T19:00:00Z,26.6955,-81.8138,1.232,7.63,1111122 
SCCF RECON,ioos:station:SCCF:18:1,2015-03-07T20:00:00Z,26.6955,-81.8138,1.29,7.8,1111122 
SCCF RECON,ioos:station:SCCF:18:1,2015-03-07T21:00:00Z,26.6955,-81.8138,1.354,7.77,1111122 
SCCF RECON,ioos:station:SCCF:18:1,2015-03-07T22:00:00Z,26.6955,-81.8138,1.38,7.82,1111122 
SCCF RECON,ioos:station:SCCF:18:1,2015-03-07T23:00:00Z,26.6955,-81.8138,1.39,8.37,1111122 
SCCF RECON,ioos:station:SCCF:18:1,2015-03-08T00:00:00Z,26.6955,-81.8138,1.36,7.94,1111122 
SCCF RECON,ioos:station:SCCF:18:1,2015-03-08T01:00:00Z,26.6955,-81.8138,1.31,7.59,1111122 
SCCF RECON,ioos:station:SCCF:18:1,2015-03-08T02:00:00Z,26.6955,-81.8138,1.272,7.48,1111122 
SCCF RECON,ioos:station:SCCF:18:1,2015-03-08T03:00:00Z,26.6955,-81.8138,1.25,7.47,1111122 
SCCF RECON,ioos:station:SCCF:18:1,2015-03-08T04:00:00Z,26.6955,-81.8138,1.22,7.45,1111122 
SCCF RECON,ioos:station:SCCF:18:1,2015-03-08T05:00:00Z,26.6955,-81.8138,1.2,7.35,1111122 
SCCF RECON,ioos:station:SCCF:18:1,2015-03-08T06:00:00Z,26.6955,-81.8138,1.229,7.25,1111122 
SCCF RECON,ioos:station:SCCF:18:1,2015-03-08T07:00:00Z,26.6955,-81.8138,1.3,7.35,1111122 
SCCF RECON,ioos:station:SCCF:18:1,2015-03-08T08:00:00Z,26.6955,-81.8138,1.37,7.23,1111122 
SCCF RECON,ioos:station:SCCF:18:1,2015-03-08T09:00:00Z,26.6955,-81.8138,1.41,7.33,1111122 
SCCF RECON,ioos:station:SCCF:18:1,2015-03-08T10:00:00Z,26.6955,-81.8138,1.44,7.32,1111122 
SCCF RECON,ioos:station:SCCF:18:1,2015-03-08T11:00:00Z,26.6955,-81.8138,1.46,7.27,1111122 
SCCF RECON,ioos:station:SCCF:18:1,2015-03-08T12:00:00Z,26.6955,-81.8138,1.43,7.19,1111122 
SCCF RECON,ioos:station:SCCF:18:1,2015-03-08T13:00:00Z,26.6955,-81.8138,1.387,6.99,1111122 
SCCF RECON,ioos:station:SCCF:18:1,2015-03-08T14:00:00Z,26.6955,-81.8138,1.33,7.07,1111122 
SCCF RECON,ioos:station:SCCF:18:1,2015-03-08T15:00:00Z,26.6955,-81.8138,1.279,7.14,1111122 
SCCF RECON,ioos:station:SCCF:18:1,2015-03-08T16:00:00Z,26.6955,-81.8138,1.242,7.33,1111122 
SCCF RECON,ioos:station:SCCF:18:1,2015-03-08T17:00:00Z,26.6955,-81.8138,1.219,7.48,1111122 
SCCF RECON,ioos:station:SCCF:18:1,2015-03-08T18:00:00Z,26.6955,-81.8138,1.223,7.54,1111122 
SCCF RECON,ioos:station:SCCF:18:1,2015-03-08T19:00:00Z,26.6955,-81.8138,1.3,7.51,1111122 
SCCF RECON,ioos:station:SCCF:18:1,2015-03-08T20:00:00Z,26.6955,-81.8138,1.374,7.9,1111122 
SCCF RECON,ioos:station:SCCF:18:1,2015-03-08T21:00:00Z,26.6955,-81.8138,1.429,7.64,1111122 
SCCF RECON,ioos:station:SCCF:18:1,2015-03-08T22:00:00Z,26.6955,-81.8138,1.461,7.94,1111122 
SCCF RECON,ioos:station:SCCF:18:1,2015-03-08T23:00:00Z,26.6955,-81.8138,1.497,8.0,1111122 
SCCF RECON,ioos:station:SCCF:18:1,2015-03-09T00:00:00Z,26.6955,-81.8138,1.49,7.71,1111122 
SCCF RECON,ioos:station:SCCF:18:1,2015-03-09T01:00:00Z,26.6955,-81.8138,1.44,7.45,1111122 
SCCF RECON,ioos:station:SCCF:18:1,2015-03-09T02:00:00Z,26.6955,-81.8138,1.38,7.36,1111122 
SCCF RECON,ioos:station:SCCF:18:1,2015-03-09T03:00:00Z,26.6955,-81.8138,1.35,7.25,1111122 
SCCF RECON,ioos:station:SCCF:18:1,2015-03-09T04:00:00Z,26.6955,-81.8138,1.3,7.29,1111122 
SCCF RECON,ioos:station:SCCF:18:1,2015-03-09T05:00:00Z,26.6955,-81.8138,1.26,7.21,1111122 
SCCF RECON,ioos:station:SCCF:18:1,2015-03-09T06:00:00Z,26.6955,-81.8138,1.24,7.2,1111122 
SCCF RECON,ioos:station:SCCF:18:1,2015-03-09T07:00:00Z,26.6955,-81.8138,1.27,7.15,1111122 
SCCF RECON,ioos:station:SCCF:18:1,2015-03-09T08:00:00Z,26.6955,-81.8138,1.33,7.15,1111122 
SCCF RECON,ioos:station:SCCF:18:1,2015-03-09T09:00:00Z,26.6955,-81.8138,1.399,7.05,1111122 
SCCF RECON,ioos:station:SCCF:18:1,2015-03-09T10:00:00Z,26.6955,-81.8138,1.44,7.18,1111122 
SCCF RECON,ioos:station:SCCF:18:1,2015-03-09T11:00:00Z,26.6955,-81.8138,1.46,7.12,1111122 
SCCF RECON,ioos:station:SCCF:18:1,2015-03-09T12:00:00Z,26.6955,-81.8138,1.47,7.13,1111122 
SCCF RECON,ioos:station:SCCF:18:1,2015-03-09T13:00:00Z,26.6955,-81.8138,1.44,7.1,1111122 
SCCF RECON,ioos:station:SCCF:18:1,2015-03-09T14:00:00Z,26.6955,-81.8138,1.385,6.96,1111122 
SCCF RECON,ioos:station:SCCF:18:1,2015-03-09T15:00:00Z,26.6955,-81.8138,1.338,7.04,1111122 
SCCF RECON,ioos:station:SCCF:18:1,2015-03-09T16:00:00Z,26.6955,-81.8138,1.31,7.18,1111122 
SCCF RECON,ioos:station:SCCF:18:1,2015-03-09T17:00:00Z,26.6955,-81.8138,1.29,7.35,1111122 
SCCF RECON,ioos:station:SCCF:18:1,2015-03-09T18:00:00Z,26.6955,-81.8138,1.325,7.41,1111122 
SCCF RECON,ioos:station:SCCF:18:1,2015-03-09T19:00:00Z,26.6955,-81.8138,1.39,7.43,1111122 
SCCF RECON,ioos:station:SCCF:18:1,2015-03-09T20:00:00Z,26.6955,-81.8138,1.461,7.45,1111122 
SCCF RECON,ioos:station:SCCF:18:1,2015-03-09T21:00:00Z,26.6955,-81.8138,1.51,7.58,1111122 
SCCF RECON,ioos:station:SCCF:18:1,2015-03-09T22:00:00Z,26.6955,-81.8138,1.55,7.76,1111122 
SCCF RECON,ioos:station:SCCF:18:1,2015-03-09T23:00:00Z,26.6955,-81.8138,1.62,7.5,1111122 
SCCF RECON,ioos:station:SCCF:18:1,2015-03-10T00:00:00Z,26.6955,-81.8138,1.659,7.66,1111122 
SCCF RECON,ioos:station:SCCF:18:1,2015-03-10T01:00:00Z,26.6955,-81.8138,1.62,7.69,1111122 
SCCF RECON,ioos:station:SCCF:18:1,2015-03-10T02:00:00Z,26.6955,-81.8138,1.542,7.23,1111122 
SCCF RECON,ioos:station:SCCF:18:1,2015-03-10T03:00:00Z,26.6955,-81.8138,1.481,7.17,1111122 
SCCF RECON,ioos:station:SCCF:18:1,2015-03-10T04:00:00Z,26.6955,-81.8138,1.437,7.21,1111122 
SCCF RECON,ioos:station:SCCF:18:1,2015-03-10T05:00:00Z,26.6955,-81.8138,1.39,7.08,1111122 
SCCF RECON,ioos:station:SCCF:18:1,2015-03-10T06:00:00Z,26.6955,-81.8138,1.35,6.99,1111122 
SCCF RECON,ioos:station:SCCF:18:1,2015-03-10T07:00:00Z,26.6955,-81.8138,1.321,6.92,1111122 
SCCF RECON,ioos:station:SCCF:18:1,2015-03-10T08:00:00Z,26.6955,-81.8138,1.36,6.87,1111122 
SCCF RECON,ioos:station:SCCF:18:1,2015-03-10T09:00:00Z,26.6955,-81.8138,1.44,6.94,1111122 
SCCF RECON,ioos:station:SCCF:18:1,2015-03-10T10:00:00Z,26.6955,-81.8138,1.52,6.9,1111122 
SCCF RECON,ioos:station:SCCF:18:1,2015-03-10T11:00:00Z,26.6955,-81.8138,1.56,6.85,1111122 
SCCF RECON,ioos:station:SCCF:18:1,2015-03-10T12:00:00Z,26.6955,-81.8138,1.56,6.95,1111122 
SCCF RECON,ioos:station:SCCF:18:1,2015-03-10T13:00:00Z,26.6955,-81.8138,1.535,6.78,1111122 
SCCF RECON,ioos:station:SCCF:18:1,2015-03-10T14:00:00Z,26.6955,-81.8138,1.49,6.73,1111122 
SCCF RECON,ioos:station:SCCF:18:1,2015-03-10T15:00:00Z,26.6955,-81.8138,1.44,6.76,1111122 
SCCF RECON,ioos:station:SCCF:18:1,2015-03-10T16:00:00Z,26.6955,-81.8138,1.41,6.85,1111122 
SCCF RECON,ioos:station:SCCF:18:1,2015-03-10T17:00:00Z,26.6955,-81.8138,1.382,7.05,1111122 
SCCF RECON,ioos:station:SCCF:18:1,2015-03-10T18:00:00Z,26.6955,-81.8138,1.37,7.22,1111122 
SCCF RECON,ioos:station:SCCF:18:1,2015-03-10T19:00:00Z,26.6955,-81.8138,1.428,7.2,1111122 
SCCF RECON,ioos:station:SCCF:18:1,2015-03-10T20:00:00Z,26.6955,-81.8138,1.508,7.36,1111122 
SCCF RECON,ioos:station:SCCF:18:1,2015-03-10T21:00:00Z,26.6955,-81.8138,1.615,7.42,1111122 
SCCF RECON,ioos:station:SCCF:18:1,2015-03-10T22:00:00Z,26.6955,-81.8138,1.67,7.52,1111122 
SCCF RECON,ioos:station:SCCF:18:1,2015-03-10T23:00:00Z,26.6955,-81.8138,1.71,7.2,1111122 
SCCF RECON,ioos:station:SCCF:18:1,2015-03-11T00:00:00Z,26.6955,-81.8138,1.719,7.53,1111122 
SCCF RECON,ioos:station:SCCF:18:1,2015-03-11T01:00:00Z,26.6955,-81.8138,1.69,7.25,1111122 
SCCF RECON,ioos:station:SCCF:18:1,2015-03-11T02:00:00Z,26.6955,-81.8138,1.62,7.18,1111122 
SCCF RECON,ioos:station:SCCF:18:1,2015-03-11T03:00:00Z,26.6955,-81.8138,1.55,7.21,1111122 
SCCF RECON,ioos:station:SCCF:18:1,2015-03-11T04:00:00Z,26.6955,-81.8138,1.5,7.27,1111122 
SCCF RECON,ioos:station:SCCF:18:1,2015-03-11T05:00:00Z,26.6955,-81.8138,1.451,6.95,1111122 
SCCF RECON,ioos:station:SCCF:18:1,2015-03-11T06:00:00Z,26.6955,-81.8138,1.402,6.9,1111122 
SCCF RECON,ioos:station:SCCF:18:1,2015-03-11T07:00:00Z,26.6955,-81.8138,1.37,6.86,1111122 
SCCF RECON,ioos:station:SCCF:18:1,2015-03-11T08:00:00Z,26.6955,-81.8138,1.36,6.81,1111122 
SCCF RECON,ioos:station:SCCF:18:1,2015-03-11T09:00:00Z,26.6955,-81.8138,1.4,6.57,1111122 
SCCF RECON,ioos:station:SCCF:18:1,2015-03-11T10:00:00Z,26.6955,-81.8138,1.45,6.67,1111122 
SCCF RECON,ioos:station:SCCF:18:1,2015-03-11T11:00:00Z,26.6955,-81.8138,1.5,6.57,1111122 
SCCF RECON,ioos:station:SCCF:18:1,2015-03-11T12:00:00Z,26.6955,-81.8138,1.54,6.7,1111122 
SCCF RECON,ioos:station:SCCF:18:1,2015-03-11T13:00:00Z,26.6955,-81.8138,1.56,6.71,1111122 
SCCF RECON,ioos:station:SCCF:18:1,2015-03-11T14:00:00Z,26.6955,-81.8138,1.54,6.69,1111122 
SCCF RECON,ioos:station:SCCF:18:1,2015-03-11T15:00:00Z,26.6955,-81.8138,1.49,6.7,1111122 
SCCF RECON,ioos:station:SCCF:18:1,2015-03-11T16:00:00Z,26.6955,-81.8138,1.449,6.61,1111122 
SCCF RECON,ioos:station:SCCF:18:1,2015-03-11T18:00:00Z,26.6955,-81.8138,1.38,6.78,1111122 
SCCF RECON,ioos:station:SCCF:18:1,2015-03-11T19:00:00Z,26.6955,-81.8138,1.417,6.87,1111122 
SCCF RECON,ioos:station:SCCF:18:1,2015-03-11T20:00:00Z,26.6955,-81.8138,1.52,7.01,1111122 
SCCF RECON,ioos:station:SCCF:18:1,2015-03-11T21:00:00Z,26.6955,-81.8138,1.603,7.2,1111122 
SCCF RECON,ioos:station:SCCF:18:1,2015-03-11T22:00:00Z,26.6955,-81.8138,1.63,7.04,1111122 